Preview of NWS' New Version of Forecast
This preview is not operational and should not be used for support decisions.

Regional Weather Roundup (RWR)

Issued by National Weather Service (NWS)

                            
000
ASUS43 KMKX 241420
RWRWI 

WISCONSIN REGIONAL WEATHER ROUNDUP
NATIONAL WEATHER SERVICE MILWAUKEE/SULLIVAN WI
900 AM CDT WED APR 24 2019

NOTE: "FAIR" INDICATES FEW OR NO CLOUDS BELOW 12,000 FEET WITH NO
SIGNIFICANT WEATHER AND/OR OBSTRUCTIONS TO VISIBILITY.

WIZ001-002-006>008-014>016-023>028-241500-
NORTHWEST WISCONSIN
  
CITY           SKY/WX    TMP DP  RH WIND       PRES   REMARKS
SUPERIOR ARPT  CLOUDY    39  32  76 NE5       29.82F                  
ASHLAND        CLOUDY    58  37  45 S15G24    29.85F                  
HAYWARD        FAIR      56  36  47 S10       29.87F                  
SIREN          FAIR      57  34  42 S10       29.86F                  
CUMBERLAND     FAIR      50  36  57 S9        29.89F                  
RICE LAKE      FAIR      57  39  50 S7        29.90F                  
CHETEK         FAIR      56  38  49 SW7       29.90F                  
LADYSMITH      FAIR      49  37  62 S6        29.93F                  
EAU CLAIRE     FAIR      53  37  54 S5        29.92F                  
MENOMONIE      FAIR      53  35  50 S9        29.91F                  
NEW RICHMOND   FAIR      58  35  42 SW15      29.88F                  
OSCEOLA        FAIR      55  40  56 S9        29.90F                  
$$
 
WIZ003>005-009-010-017-018-241500-
NORTH CENTRAL WISCONSIN
  
CITY           SKY/WX    TMP DP  RH WIND       PRES   REMARKS
MANITOWISH WTR FAIR      46  35  67 S7        29.90F                  
ARBOR VITAE    FAIR      47  38  70 S8        29.93F                  
WOODRUFF       FAIR      47  38  70 S8        29.93F                  
RHINELANDER    FAIR      50  33  52 S7        29.95                   
EAGLE RIVER    FAIR      47  32  55 S6        29.92F                  
LAND O LAKES   FAIR      49  33  54 S6        29.93F                  
PHILLIPS       FAIR      49  35  58 S8        29.90F                  
TOMAHAWK       CLOUDY    44  38  79 CALM      29.95F                  
MEDFORD        FAIR      50  40  68 S7        29.93F                  
MERRILL        FAIR      51  38  60 SW3       29.95F                  
$$
 
WIZ029-030-035-036-043>047-241500-
CENTRAL WISCONSIN
  
CITY           SKY/WX    TMP DP  RH WIND       PRES   REMARKS
WAUSAU         FAIR      48  37  65 S7        29.94                   
MOSINEE        MOSUNNY   48  39  71 S7        29.97F                  
MARSHFIELD     FAIR      50  41  71 S8        29.93                   
STEVENS POINT  FAIR      50  38  62 SW6       29.97F                  
WAUPACA        FAIR      52  40  64 S6        29.98F                  
WAUTOMA        FAIR      48  40  73 S5        29.99                   
WISC RAPIDS    FAIR      52  39  61 S7        29.97                   
CAMP DOUGLAS   SUNNY     54  43  66 S5        29.97S                  
$$
 
WIZ011>013-019>022-031-037>040-048>050-241500-
NORTHEAST WISCONSIN
  
CITY           SKY/WX    TMP DP  RH WIND       PRES   REMARKS
ANTIGO         FAIR      47  37  65 S8        29.96F                  
SHAWANO        FAIR      54  46  75 S6        29.98F                  
OCONTO         FAIR      48  33  56 S9        30.00F                  
STURGEON BAY   FAIR      47  34  60 S9        30.01F                  
GREEN BAY      FAIR      49  38  65 S9        30.00F                  
MANITOWOC      FAIR      47  36  65 S15       30.03F                  
APPLETON       MOSUNNY   50  36  57 S8        29.98F                  
CLINTONVILLE   FAIR      51  38  60 S7        29.98F                  
OSHKOSH        FAIR      50  40  68 S12       29.99F                  
$$
 
WIZ032>034-041-042-053>061-241500-
SOUTHWEST WISCONSIN
  
CITY           SKY/WX    TMP DP  RH WIND       PRES   REMARKS
LA CROSSE      FAIR      55  42  61 S6        29.95F                  
SPARTA         FAIR      52  42  68 CALM      29.96F                  
VIROQUA        FAIR      54  43  64 S8        29.97F                  
BOSCOBEL       FAIR      53  42  66 CALM      29.99F                  
PRAIRIE DU CHI FAIR      55  43  63 S7        29.98F                  
PLATTEVILLE    FAIR      55  49  82 S3        30.00S                  
$$

WIZ056-057-062-063-064-067-068-241500-
SOUTH CENTRAL WISCONSIN
  
CITY           SKY/WX    TMP DP  RH WIND       PRES   REMARKS
REEDSBURG      FAIR      55  43  65 S5        29.97F                  
BARABOO/DELLS  FAIR      55  41  60 S5        29.98F                  
LONE ROCK      FAIR      52  44  74 E5        29.99F                  
MINERAL POINT  FAIR      54  46  76 CALM      29.99F                  
MADISON        FAIR      51  44  77 S7        30.00F                  
MIDDLETON      FAIR      54  46  72 S3        30.00F                  
WATERTOWN      FAIR      52  45  76 S6        30.01F                  
MONROE         FAIR      55  46  71 MISG      30.00S                  
JANESVILLE     PTSUNNY   55  46  71 S10       30.01F                  
$$
 
WIZ051-052-058>065-066-070>072-241500-
SOUTHEAST WISCONSIN
  
CITY           SKY/WX    TMP DP  RH WIND       PRES   REMARKS
MILWAUKEE      FAIR      49  34  56 S12       30.04S                  
WAUKESHA       SUNNY     48  36  61 SE6       30.04S                  
MILWAUKEE/TIMM SUNNY     50  32  50 S8        30.05S                  
RACINE         FAIR      48  33  56 S9        30.06S                  
KENOSHA        FAIR      50  38  63 S7        30.04F                  
FOND DU LAC    FAIR      51  42  71 S14       30.00F                  
SHEBOYGAN      FAIR      48  37  65 S13       30.02F                  
WEST BEND      FAIR      48  37  66 SE6       30.02F                  
JUNEAU         FAIR      50  42  72 S8        30.02F                  
$$

LSZ147-162-241500-
LAKE SUPERIOR
  
STATION/POSITION TIME  TEMP    WIND        PRES    WAVE
                       AIR SEA DIR/SP/G            HT/PER
                 (UTC) (F)     (DEG/KT/KT) (MB)    (FT/S)
$$
 
LMZ867-665-643>646-241500-
LAKE MICHIGAN
  
STATION/POSITION TIME  TEMP    WIND        PRES    WAVE
                       AIR SEA DIR/SP/G            HT/PER
                 (UTC) (F)     (DEG/KT/KT) (MB)    (FT/S)
NORTHPORT PIER   1340   39     140/  5/  5 1016.6F
KEWAUNEE LAKESHO 1354   41     170/  8/  9 1016.0F
SHEBOYGAN LAKESH 1400   41     170/ 12/ 13 1017.2F
MILWAUKEE LAKESH 1400   44                   N/A
KENOSHA   LAKESH 1400   43     180/  8/ 11 1017.6
$$

TC  - TEMPERATURE IN CELSIUS
VSB - VISIBILITY IN STATUTE MILES
WCI - WIND CHILL INDEX
HX  - HEAT INDEX